Franklin, PA

11:39 PM EST on November 17, 2019 (GMT -0500)
Venango Regional

Weather History for KFKL - July, 2019

Change the Weather History Date:

Wednesday, July 31, 2019

  Actual Average Record
Temperature  
Mean Temperature 70 °F -  
Max Temperature 81 °F 81 °F 99 °F (1933)
Min Temperature 59 °F 57 °F 46 °F (1952)
Cooling Degree Days 4    
Growing Degree Days 20 (Base 50)    
Moisture  
Dew Point 62 °F    
Average Humidity 93    
Maximum Humidity 100    
Minimum Humidity 58    
Precipitation  
Precipitation 0.01 in - - ()
Sea Level Pressure  
Sea Level Pressure 30.09 in    
Wind  
Wind Speed 2 mph (East)    
Max Wind Speed 8 mph    
Max Gust Speed 17 mph    
Visibility 4 miles    
Events Fog , Thunderstorm    
Averages and records for this station are not official NWS values.
T = Trace of Precipitation, MM = Missing Value Source: NWS Daily Summary

Daily Weather History Graph

Daily Weather History Graph

Search for Another Location

Airport or City:

Astronomy

Jul. 31, 2019 Rise Set
Actual Time 6:13 AM EDT 8:37 PM EDT
Civil Twilight 5:42 AM EDT 9:08 PM EDT
Nautical Twilight 5:03 AM EDT 9:47 PM EDT
Astronomical Twilight 4:19 AM EDT 10:30 PM EDT
Moon 5:23 AM EDT (7/31) 8:36 PM EDT (7/31)
Length of Visible Light 15h 26m
Length of Day
14h 24m
Waning Crescent, 0% of the Moon is Illuminated
Jul 31
Waning Crescent
Jul 31
New
Aug 7
First Quarter
Aug 15
Full
Aug 23
Last Quarter

Hourly Weather History & Observations

Time (EDT) Temp. Heat Index Dew Point Humidity Pressure Visibility Wind Dir Wind Speed Gust Speed Precip Events Conditions
12:01 AM 62.6 °F - 62.6 °F 100% 30.08 in 0.8 mi SW 4.6 mph - N/A   Clear
12:04 AM 62.6 °F - 62.6 °F 100% 30.08 in 0.5 mi SW 4.6 mph - N/A Fog Fog
12:24 AM 64.4 °F - 62.6 °F 94% 30.08 in 1.0 mi Calm Calm - N/A   Mist
12:27 AM 64.4 °F - 64.4 °F 100% 30.07 in 2.5 mi Calm Calm - N/A   Partly Cloudy
12:41 AM 62.6 °F - 62.6 °F 100% 30.08 in 0.8 mi Calm Calm - N/A   Mist
12:48 AM 62.6 °F - 62.6 °F 100% 30.07 in 0.2 mi Calm Calm - N/A Fog Fog
12:56 AM 62.1 °F - 61.0 °F 96% 30.06 in 0.2 mi Calm Calm - N/A Fog Fog
1:13 AM 60.8 °F - 60.8 °F 100% 30.07 in 0.5 mi Calm Calm - N/A Fog Fog
1:24 AM 62.6 °F - 60.8 °F 94% 30.07 in 1.0 mi Calm Calm - N/A   Mist
1:32 AM 62.6 °F - 62.6 °F 100% 30.07 in 1.2 mi Calm Calm - N/A   Clear
1:35 AM 62.6 °F - 60.8 °F 94% 30.07 in 0.8 mi Calm Calm - N/A   Mist
1:38 AM 62.6 °F - 60.8 °F 94% 30.07 in 0.2 mi Calm Calm - N/A Fog Fog
1:52 AM 60.8 °F - 60.8 °F 100% 30.07 in 0.5 mi Calm Calm - N/A Fog Fog
1:56 AM 60.1 °F - 60.1 °F 100% 30.06 in 0.2 mi Calm Calm - N/A Fog Fog
2:06 AM 60.8 °F - 60.8 °F 100% 30.07 in 0.5 mi Calm Calm - N/A Fog Fog
2:09 AM 60.8 °F - 60.8 °F 100% 30.07 in 1.0 mi SE 4.6 mph - N/A   Mist
2:11 AM 60.8 °F - 60.8 °F 100% 30.07 in 2.0 mi SE 4.6 mph - N/A   Scattered Clouds
2:17 AM 60.8 °F - 60.8 °F 100% 30.08 in 1.0 mi East 3.5 mph - N/A   Mist
2:28 AM 60.8 °F - 60.8 °F 100% 30.08 in 0.8 mi Calm Calm - N/A   Mostly Cloudy
2:42 AM 60.8 °F - 60.8 °F 100% 30.07 in 0.5 mi ESE 4.6 mph - N/A Fog Fog
2:56 AM 61.0 °F - 60.1 °F 97% 30.06 in 0.2 mi Calm Calm - N/A Fog Fog
3:43 AM 60.8 °F - 60.8 °F 100% 30.07 in 0.8 mi SE 4.6 mph - N/A   Mostly Cloudy
3:47 AM 60.8 °F - 60.8 °F 100% 30.07 in 1.2 mi SE 4.6 mph - N/A   Mostly Cloudy
3:56 AM 60.1 °F - 59.0 °F 96% 30.06 in 0.8 mi Calm Calm - N/A   Mist
4:08 AM 60.8 °F - 60.8 °F 100% 30.08 in 1.2 mi Calm Calm - N/A   Mostly Cloudy
4:13 AM 60.8 °F - 60.8 °F 100% 30.08 in 0.8 mi Calm Calm - N/A   Mostly Cloudy
4:21 AM 60.8 °F - 60.8 °F 100% 30.08 in 0.5 mi Calm Calm - N/A Fog Fog
4:35 AM 60.8 °F - 60.8 °F 100% 30.08 in 0.8 mi Calm Calm - N/A   Overcast
4:52 AM 60.8 °F - 59.0 °F 94% 30.08 in 0.5 mi Calm Calm - N/A Fog Fog
4:56 AM 60.1 °F - 59.0 °F 96% 30.07 in 0.2 mi Calm Calm - N/A Fog Fog
5:18 AM 59.0 °F - 59.0 °F 100% 30.09 in 0.5 mi Calm Calm - N/A Fog Fog
5:38 AM 59.0 °F - 59.0 °F 100% 30.09 in 0.2 mi Calm Calm - N/A Fog Fog
5:56 AM 59.0 °F - 59.0 °F 100% 30.08 in 0.2 mi NNE 3.5 mph - N/A Fog Fog
6:56 AM 61.0 °F - 61.0 °F 100% 30.08 in 0.2 mi Calm Calm - 0.01 in Fog Fog
7:56 AM 62.1 °F - 62.1 °F 100% 30.09 in 0.8 mi ESE 5.8 mph - N/A   Overcast
8:00 AM 62.6 °F - 62.6 °F 100% 30.11 in 1.2 mi SE 4.6 mph - N/A   Overcast
8:05 AM 62.6 °F - 62.6 °F 100% 30.11 in 3.0 mi SE 3.5 mph - N/A   Overcast
8:22 AM 62.6 °F - 62.6 °F 100% 30.11 in 10.0 mi ESE 3.5 mph - N/A   Scattered Clouds
8:56 AM 64.9 °F - 64.0 °F 97% 30.12 in 10.0 mi NNE 3.5 mph - N/A   Mostly Cloudy
9:06 AM 64.4 °F - 64.4 °F 100% 30.12 in 1.8 mi Calm Calm - N/A   Mostly Cloudy
9:09 AM 64.4 °F - 64.4 °F 100% 30.12 in 0.8 mi Calm Calm - N/A   Mostly Cloudy
9:19 AM 64.4 °F - 64.4 °F 100% 30.13 in 2.5 mi Calm Calm - N/A   Overcast
9:27 AM 64.4 °F - 64.4 °F 100% 30.13 in 6.0 mi Calm Calm - N/A   Overcast
9:56 AM 66.9 °F - 66.0 °F 97% 30.12 in 10.0 mi NE 3.5 mph - N/A   Mostly Cloudy
10:12 AM 68.0 °F - 64.4 °F 88% 30.13 in 10.0 mi Calm Calm - N/A   Scattered Clouds
10:56 AM 71.1 °F - 66.9 °F 87% 30.12 in 10.0 mi Variable 3.5 mph - N/A   Partly Cloudy
11:56 AM 77.0 °F - 64.9 °F 66% 30.11 in 10.0 mi South 5.8 mph - N/A   Clear
12:56 PM 78.1 °F - 63.0 °F 60% 30.09 in 9.0 mi Variable 4.6 mph - N/A   Clear
1:56 PM 80.1 °F 81.7 °F 64.0 °F 58% 30.08 in 10.0 mi SSW 5.8 mph - N/A   Partly Cloudy
2:42 PM 78.8 °F - 64.4 °F 61% 30.10 in 10.0 mi Variable 4.6 mph - 0.00 in Thunderstorm Mostly Cloudy
2:56 PM 72.0 °F - 64.9 °F 78% 30.09 in 10.0 mi Variable 5.8 mph 17.3 mph 0.00 in Thunderstorm Overcast
3:56 PM 73.9 °F - 64.9 °F 73% 30.09 in 10.0 mi North 8.1 mph - N/A   Mostly Cloudy
4:56 PM 73.9 °F - 66.9 °F 79% 30.09 in 10.0 mi North 4.6 mph - N/A   Mostly Cloudy
5:56 PM 73.9 °F - 66.9 °F 79% 30.08 in 10.0 mi NNE 4.6 mph - N/A   Partly Cloudy
6:56 PM 75.0 °F - 66.0 °F 73% 30.08 in 10.0 mi Variable 4.6 mph - N/A   Scattered Clouds
7:56 PM 73.9 °F - 66.9 °F 79% 30.09 in 10.0 mi Variable 4.6 mph - N/A   Partly Cloudy
8:56 PM 71.1 °F - 64.9 °F 81% 30.11 in 10.0 mi NNW 3.5 mph - N/A   Overcast
9:56 PM 69.1 °F - 64.9 °F 87% 30.12 in 6.0 mi Variable 3.5 mph - N/A   Overcast
10:56 PM 66.9 °F - 63.0 °F 87% 30.12 in 10.0 mi North 5.8 mph - N/A   Clear
11:56 PM 66.0 °F - 63.0 °F 90% 30.11 in 10.0 mi NNW 3.5 mph - N/A   Clear